133P/(7968) Elst-Pizarro (2013)

Japanese version
Home page
Updated on June 23, 2012

---------------------------------------------------------------------

* Profile

* Pictures

* Orbital Elements

Epoch 2013 Jan. 28.0 TT = JDT 2456320.5
T 2013 Feb. 8.98133 TT                                  MPC
q   2.6499754            (2000.0)            P               Q
n   0.17540297     Peri.  132.16275     +0.37972523     +0.92506282
a   3.1606622      Node   160.14935     -0.85573833     +0.35461576
e   0.1615759      Incl.    1.38680     -0.35145508     +0.13603842
P   5.62
From 458 observations 1979 July 24-2011 Feb. 12, mean residual 0".5.

* Magnitudes Graph

        H = 15.5  G = 0.15

---------------------------------------------------------------------

The orbital elements are published on M.P.E.C. 2011-D36.
The magnitudes graphs are made with Comet for Windows.

---------------------------------------------------------------------

Copyright(C) Seiichi Yoshida (comet@aerith.net). All rights reserved.